Regional Weather Roundup
Issued by NWS

Home | Current Version | Previous Version | Graphics & Text | Print | Product List | Glossary On
Versions: 1 2 3 4 5 6 7 8 9 10 11 12 13 14 15 16 17 18 19 20 21 22 23 24 25 26 27 28 29 30 31 32 33 34 35 36 37 38 39 40 41 42 43 44 45 46 47 48 49 50
297
ASUS43 KOAX 111402
RWRNE

WEATHER ROUNDUP FOR NEBRASKA
NATIONAL WEATHER SERVICE OMAHA NE
800 AM CST THU FEB 11 2016

NOTES: SATELLITE DATA IS BEING USED TO AUGMENT CLOUD COVER ABOVE
       12000 FEET.
       "FAIR" INDICATES FEW OR NO CLOUDS BELOW 12,000 FEET WITH NO
       SIGNIFICANT WEATHER AND/OR OBSTRUCTIONS TO VISIBILITY.

  * THESE STATIONS DO NOT REPORT WEATHER SUCH AS RAIN...SNOW OR FOG.

NEZ001>004-019>022-054>056-111500-
NEBRASKA PANHANDLE

CITY           SKY/WX    TMP DP  RH WIND       PRES   REMARKS
SCOTTSBLUFF    PTCLDY    36  26  67 NW7       30.06F WCI  30
ALLIANCE       CLOUDY    33  27  78 W9        30.03F WCI  25
CHADRON        PTCLDY    30  26  85 W6        30.03F WCI  24
KIMBALL        CLOUDY    36  25  63 W10       30.10S WCI  29
SIDNEY         CLOUDY    39  26  59 W14       30.09S WCI  31
$$

NEZ057>060-069>072-079>082-111500-
SOUTHWEST NEBRASKA

CITY           SKY/WX    TMP DP  RH WIND       PRES   REMARKS
NORTH PLATTE   CLOUDY    26  25  96 S6        30.13S FOG     WCI  19
IMPERIAL       PTCLDY    25  21  85 CALM      30.12F
LEXINGTON      CLOUDY    30  28  90 SE5       30.18R WCI  25
MCCOOK         FOG       22  21  96 SE6       30.17S VSB 1/4 WCI  14
$$

NEZ005>010-023>029-035>040-094-111500-
NORTH CENTRAL NEBRASKA

CITY           SKY/WX    TMP DP  RH WIND       PRES   REMARKS
VALENTINE      CLOUDY    29  27  92 SE7       30.09F FOG     WCI  22
AINSWORTH      CLOUDY    28  26  91 S6        30.10S WCI  21
BROKEN BOW     CLOUDY    30  28  92 SE5       30.14S WCI  25
ORD            CLOUDY    26  24  92 SE6       30.18R WCI  19
$$

NEZ041-046>049-061>064-073>077-083>087-111500-
SOUTH CENTRAL NEBRASKA

CITY           SKY/WX    TMP DP  RH WIND       PRES   REMARKS
GRAND ISLAND   CLOUDY    24  21  88 SE6       30.23R FOG     WCI  17
AURORA         CLOUDY    23  22  94 E9        30.22R FOG     WCI  13
HASTINGS       CLOUDY    26  22  84 E6        30.21R WCI  19
HEBRON         CLOUDY    22  20  90 NE8       30.25S WCI  13
KEARNEY *      CLOUDY    28  25  86 E5        30.20R WCI  23
YORK           CLOUDY    21  19  93 E7        30.25R WCI  13
$$

NEZ011>018-030>034-042>045-111500-
NORTHEAST NEBRASKA

CITY           SKY/WX    TMP DP  RH WIND       PRES   REMARKS
NORFOLK        CLOUDY    19  14  81 SE7       30.23S WCI  10
ALBION         CLOUDY    22  19  89 SE8       30.20F FOG     WCI  12
BLAIR          CLOUDY    15   5  65 E6        30.28S WCI   6
COLUMBUS *     CLOUDY    18   9  68 E9        30.26S WCI   6
FREMONT        CLOUDY    16   8  70 E5        30.30R WCI   9
TEKAMAH        CLOUDY    16   5  62 E6        30.31F WCI   7
$$

NEZ050>053-065>068-078-088>093-111500-
SOUTHEAST NEBRASKA

CITY           SKY/WX    TMP DP  RH WIND       PRES   REMARKS
LINCOLN        CLOUDY    19  14  81 NE8       30.30R WCI   9
OMAHA EPPLEY   CLOUDY    15   3  59 E5        30.33R WCI   8
BEATRICE       CLOUDY    20  19  95 NE3       30.28R FOG
FALLS CITY     CLOUDY    20  16  84 N10       30.30R WCI   9
NEBRASKA CITY  CLOUDY    18  14  86 NE8       30.30R WCI   7
$$

NEZ044-045-051>053-067-111500-
OMAHA AREA

CITY           SKY/WX    TMP DP  RH WIND       PRES   REMARKS
OMAHA EPPLEY   CLOUDY    15   3  59 E5        30.33R WCI   8
BLAIR          CLOUDY    15   5  65 E6        30.28S WCI   6
FREMONT        CLOUDY    16   8  70 E5        30.30R WCI   9
OFFUTT AFB     CLOUDY    15   6  65 NE6       30.31R WCI   7
WAHOO          CLOUDY    17  12  78 E5        30.30R WCI  10
$$




USA.gov is the U.S. government's official web portal to all federal, state and local government web resources and services.